Location: Unspecified
(0.0000°N, 0.0000°E)
Time: 08:07:31
(UTC+00:00)

X-37B - Pass Details

Date: 23 November 2020
Orbit: 384 x 389 km, 45.0° (Epoch: 12 November)

Event Time Altitude Azimuth Distance (km) Brightness Sun altitude
Exits shadow 03:58:48 14° 57° (ENE) 1,168 3.4 -25.1°
Drops below altitude 10° 04:00:15 10° 84° (E) 1,402 4.2 -24.8°
Sets 04:02:58 0° 109° (ESE) 2,260 5.9 -24.1°
